Location: Newark
(30.1000°N, 109.4667°E)
Time: 22:57:31
(UTC+00:00)

SR - All Passes

Search period start: 18 February 2020 00:00
Search period end: 28 February 2020 00:00
Orbit: 575 x 881 km, 66.7° (Epoch: 18 February)

Date Brightness Start Highest point End Pass type
(mag) Time Alt. Az. Time Alt. Az. Time Alt. Az.
18 Feb - 07:42:07 10° S 07:47:19 35° ESE 07:52:37 10° NE daylight
18 Feb - 09:24:20 10° WSW 09:29:24 29° WNW 09:34:30 10° N daylight
18 Feb - 18:11:21 10° NNW 18:16:24 62° ENE 18:20:58 10° SE night (unlit)
19 Feb - 06:54:31 10° SE 06:57:58 16° ESE 07:01:28 10° ENE daylight
19 Feb - 08:33:47 10° SW 08:39:32 59° WNW 08:45:22 10° NNE daylight
19 Feb - 17:22:13 10° N 17:26:33 27° ENE 17:30:34 10° ESE night (unlit)
19 Feb - 19:04:29 10° NW 19:08:24 24° WSW 19:12:05 10° SSW night (unlit)
20 Feb - 07:44:05 10° SSW 07:49:52 69° ESE 07:55:45 10° NNE daylight
20 Feb - 09:28:52 10° W 09:32:27 16° NW 09:36:02 10° NNW daylight
20 Feb - 16:34:05 10° NNE 16:36:27 13° NE 16:38:45 10° E night (unlit)
20 Feb - 18:14:06 10° NNW 18:19:01 59° WSW 18:23:30 10° S night (unlit)
21 Feb - 06:55:16 10° S 07:00:22 32° ESE 07:05:34 10° NE daylight
21 Feb - 08:37:15 10° WSW 08:42:24 31° WNW 08:47:36 10° N daylight
21 Feb - 17:24:25 10° NNW 17:29:24 57° ENE 17:33:56 10° SE night (unlit)
21 Feb - 19:10:17 10° W 19:10:41 10° WSW 19:11:04 10° WSW night (unlit)
22 Feb - 06:07:51 10° SE 06:11:02 15° ESE 06:14:16 10° ENE daylight
22 Feb - 07:46:46 10° SW 07:52:34 63° WNW 07:58:26 10° NNE daylight
22 Feb - 16:35:20 10° N 16:39:32 25° ENE 16:43:25 10° ESE night (unlit)
22 Feb - 18:17:25 10° NW 18:21:27 26° WSW 18:25:13 10° SSW night (unlit)
23 Feb - 06:57:09 10° SSW 07:02:54 64° ESE 07:08:46 10° NNE daylight
23 Feb - 08:41:40 10° W 08:45:26 17° NW 08:49:14 10° NNW daylight
23 Feb - 15:47:27 10° NNE 15:49:25 12° NE 15:51:20 10° ENE night (unlit)
23 Feb - 17:27:06 10° NNW 17:32:03 64° WSW 17:36:31 10° SSE night (unlit)
24 Feb - 06:08:25 10° SSE 06:13:26 30° ESE 06:18:31 10° NE daylight
24 Feb - 07:50:10 10° WSW 07:55:25 33° WNW 08:00:42 10° N daylight
24 Feb - 16:37:29 10° NNW 16:42:24 53° ENE 16:46:52 10° SE night (unlit)
24 Feb - 18:22:25 10° W 18:23:43 11° WSW 18:25:00 10° WSW night (unlit)
25 Feb - 05:21:13 10° SE 05:24:06 14° ESE 05:27:01 10° ENE daylight
25 Feb - 06:59:46 10° SSW 07:05:36 67° WNW 07:11:29 10° NNE daylight
25 Feb - 15:48:28 10° N 15:52:30 24° NE 15:56:15 10° ESE night (unlit)
25 Feb - 17:30:21 10° NW 17:34:29 28° WSW 17:38:19 10° SSW night (unlit)
26 Feb - 06:10:13 10° S 06:15:58 60° ESE 06:21:46 10° NNE daylight
26 Feb - 07:54:27 10° W 07:58:26 18° NW 08:02:24 10° NNW daylight
26 Feb - 15:00:55 10° NNE 15:02:22 11° NE 15:03:47 10° ENE night (unlit)
26 Feb - 16:40:07 10° NNW 16:45:03 69° WSW 16:49:32 10° SSE night (unlit)
27 Feb - 05:21:35 10° SSE 05:26:29 28° ESE 05:31:27 10° NE daylight
27 Feb - 07:03:05 10° SW 07:08:26 35° WNW 07:13:47 10° N daylight
27 Feb - 15:50:33 10° NNW 15:55:23 48° ENE 15:59:48 10° SE night (unlit)
27 Feb - 17:35:00 10° W 17:36:46 12° WSW 17:38:30 10° SW night (unlit)
